Location: Newark
(13.6797°N, 8.5297°E)
Time: 13:36:19
(UTC+00:00)

SR - Pass Details

Date: 31 January 2020
Orbit: 575 x 880 km, 66.7° (Epoch: 24 February)

Event Time Altitude Azimuth Distance (km) Brightness Sun altitude
Rises 06:22:11 0° 336° (NNW) 3,172 ? 5.8°
Reaches altitude 10° 06:24:39 10° 334° (NNW) 2,198 ? 6.4°
Maximum altitude 06:29:36 72° 251° (WSW) 707 ? 7.5°
Drops below altitude 10° 06:34:07 10° 166° (SSE) 2,010 ? 8.6°
Sets 06:36:18 0° 164° (SSE) 2,879 ? 9.0°
